GW6889 Weather Reports


time (UTC)temp
C
wind
direction
speed
KPH
gust
KPH
rain 1hr
cm
rain 24hr
cm
rain mn
cm
humidity
%
barometer
mb
20260509162009 19 352 1.6 8.0 0.00 0.00 0.00 56 1005.0
20260509161524 19 157 1.6 8.0 0.00 0.00 0.00 58 1005.0
20260509161011 19 281 1.6 6.4 0.00 0.00 0.00 58 1005.0
20260509160507 18 161 1.6 11.3 0.00 0.00 0.00 61 1004.9
20260509160022 18 341 3.2 11.3 0.00 0.00 0.00 58 1005.1
20260509155503 18 219 1.6 8.0 0.00 0.00 0.00 64 1005.2
20260509155005 18 128 0.0 6.4 0.00 0.00 0.00 65 1005.2
20260509154515 17 352 0.0 9.7 0.00 0.00 0.00 64 1005.1
20260509154005 17 234 0.0 11.3 0.00 0.00 0.00 64 1005.1
20260509153507 17 234 3.2 11.3 0.00 0.00 0.00 65 1005.1
20260509153030 17 185 1.6 6.4 0.00 0.00 0.00 68 1005.2
20260509152508 17 160 0.0 6.4 0.00 0.00 0.00 69 1005.2
20260509152011 17 138 0.0 4.8 0.00 0.00 0.00 68 1005.2
20260509151523 16 244 1.6 4.8 0.00 0.00 0.00 70 1005.3
20260509151013 16 255 0.0 6.4 0.00 0.00 0.00 72 1005.3
20260509150509 16 220 1.6 9.7 0.00 0.00 0.00 71 1005.3
20260509150026 16 142 0.0 9.7 0.00 0.00 0.00 71 1005.2
20260509145507 16 186 0.0 3.2 0.00 0.00 0.00 73 1005.2
20260509145004 15 205 0.0 9.7 0.00 0.00 0.00 75 1005.2
20260509144514 15 28 0.0 9.7 0.00 0.00 0.00 73 1005.3
20260509144004 15 196 1.6 3.2 0.00 0.00 0.00 73 1005.3
20260509143509 15 188 1.6 6.4 0.00 0.00 0.00 74 1005.3
20260509143019 15 302 1.6 9.7 0.00 0.00 0.00 76 1005.2
20260509142504 15 221 1.6 9.7 0.00 0.00 0.00 76 1005.0
20260509142005 15 242 0.0 4.8 0.00 0.00 0.00 78 1005.0
20260509141524 14 208 0.0 8.0 0.00 0.00 0.00 77 1005.1
20260509141011 14 130 0.0 8.0 0.00 0.00 0.00 77 1005.1
20260509140509 14 144 1.6 4.8 0.00 0.00 0.00 79 1005.3
20260509140026 14 256 1.6 6.4 0.00 0.00 0.00 78 1005.2
20260509135509 14 350 0.0 6.4 0.00 0.00 0.00 79 1005.1
20260509135010 13 173 1.6 6.4 0.00 0.00 0.00 80 1005.1
20260509134528 13 271 1.6 9.7 0.00 0.00 0.00 80 1005.0
20260509134009 13 226 1.6 9.7 0.00 0.00 0.00 80 1004.8
20260509133504 13 209 0.0 4.8 0.00 0.00 0.00 81 1004.9
20260509133020 13 300 1.6 6.4 0.00 0.00 0.00 82 1004.9
20260509132508 13 294 0.0 6.4 0.00 0.00 0.00 83 1005.0
20260509132010 13 243 1.6 8.0 0.00 0.00 0.00 83 1005.0
20260509131523 12 239 1.6 12.9 0.00 0.00 0.00 84 1005.2
20260509131006 12 244 1.6 12.9 0.00 0.00 0.00 85 1005.1
20260509130512 12 231 3.2 8.0 0.00 0.00 0.00 86 1005.1
20260509130051 12 218 0.0 6.4 0.00 0.00 0.00 87 1005.0
20260509125506 12 225 1.6 6.4 0.00 0.00 0.00 88 1005.0
20260509125008 12 258 0.0 3.2 0.00 0.00 0.00 89 1005.1
20260509124532 11 219 0.0 6.4 0.00 0.00 0.00 89 1005.0
20260509124009 11 242 1.6 11.3 0.00 0.00 0.00 89 1005.0
20260509123508 11 166 0.0 11.3 0.00 0.00 0.00 90 1005.0
20260509123019 11 236 1.6 8.0 0.00 0.00 0.00 90 1005.0
20260509122505 11 223 0.0 8.0 0.00 0.00 0.00 91 1005.1
20260509122006 11 229 0.0 12.9 0.00 0.00 0.00 91 1005.1
20260509121518 11 189 1.6 12.9 0.00 0.00 0.00 91 1004.8
20260509121008 11 178 1.6 11.3 0.00 0.00 0.00 91 1004.9
20260509120506 11 238 4.8 11.3 0.00 0.00 0.00 91 1005.0
20260509120029 10 244 0.0 8.0 0.00 0.00 0.00 91 1005.0
20260509115510 10 257 1.6 9.7 0.00 0.00 0.00 91 1004.9
20260509115009 10 246 3.2 11.3 0.00 0.00 0.00 91 1005.0
20260509114529 10 227 1.6 11.3 0.00 0.00 0.00 91 1004.8
20260509114008 10 266 1.6 8.0 0.00 0.00 0.00 91 1004.8
20260509113513 10 150 1.6 9.7 0.00 0.00 0.00 91 1004.8
20260509113025 10 284 3.2 9.7 0.00 0.00 0.00 91 1004.7
20260509112510 10 241 0.0 4.8 0.00 0.00 0.00 91 1004.5
20260509112008 10 155 0.0 4.8 0.00 0.00 0.00 91 1004.6
20260509111518 10 243 1.6 4.8 0.00 0.00 0.00 91 1004.6
20260509111007 10 260 0.0 3.2 0.00 0.00 0.00 91 1004.8
20260509110505 10 346 1.6 4.8 0.00 0.00 0.00 91 1004.8
20260509110026 10 233 1.6 6.4 0.00 0.00 0.00 91 1004.4
20260509105508 10 265 0.0 6.4 0.00 0.00 0.00 91 1004.5
20260509105010 10 227 1.6 8.0 0.00 0.00 0.00 91 1004.4
20260509104526 10 173 1.6 8.0 0.00 0.00 0.00 91 1004.4
20260509104007 10 226 1.6 8.0 0.00 0.00 0.00 91 1004.4
20260509103513 10 257 1.6 8.0 0.00 0.00 0.00 91 1004.4
20260509103026 10 163 0.0 6.4 0.00 0.00 0.00 91 1004.4
20260509102512 10 166 0.0 6.4 0.00 0.00 0.00 91 1004.3
20260509102012 10 215 1.6 6.4 0.00 0.00 0.00 91 1004.3
20260509101534 10 247 0.0 3.2 0.00 0.00 0.00 91 1004.3
20260509101008 10 215 0.0 8.0 0.00 0.00 0.00 91 1004.4
20260509100507 10 208 1.6 8.0 0.00 0.00 0.00 91 1004.5
20260509100021 10 222 1.6 4.8 0.00 0.00 0.00 91 1004.6
20260509095507 10 205 0.0 4.8 0.00 0.00 0.00 91 1004.6
20260509095007 10 247 1.6 4.8 0.00 0.00 0.00 91 1004.7
20260509094531 10 185 0.0 4.8 0.00 0.00 0.00 91 1004.6
20260509094007 10 186 1.6 4.8 0.00 0.00 0.00 91 1004.7
20260509093508 10 196 0.0 4.8 0.00 0.00 0.00 90 1004.6
20260509093025 10 227 0.0 3.2 0.00 0.00 0.00 90 1004.8
20260509092510 10 186 0.0 8.0 0.00 0.00 0.00 90 1004.9
20260509092010 10 220 0.0 8.0 0.00 0.00 0.00 90 1005.0
20260509091531 10 244 0.0 3.2 0.00 0.00 0.00 90 1005.0
20260509091009 10 234 0.0 3.2 0.00 0.00 0.00 90 1005.0
20260509090511 10 265 0.0 3.2 0.00 0.00 0.00 90 1005.0
20260509090028 10 184 0.0 6.4 0.00 0.00 0.00 90 1005.0
20260509085506 10 244 0.0 6.4 0.00 0.00 0.00 90 1005.1
20260509085007 10 190 0.0 4.8 0.00 0.00 0.00 90 1005.0
20260509084524 10 255 1.6 4.8 0.00 0.00 0.00 90 1005.2
20260509084008 10 246 1.6 4.8 0.00 0.00 0.00 90 1005.2
20260509083508 10 173 0.0 3.2 0.00 0.00 0.00 89 1005.2
20260509083025 10 192 0.0 3.2 0.00 0.00 0.00 89 1005.2
20260509082509 10 215 0.0 3.2 0.00 0.00 0.00 89 1005.2
20260509082010 10 269 0.0 3.2 0.00 0.00 0.00 89 1005.1
20260509081528 10 211 0.0 3.2 0.00 0.00 0.00 89 1005.2
20260509081010 10 254 0.0 3.2 0.00 0.00 0.00 89 1005.2
20260509080509 10 277 0.0 3.2 0.00 0.00 0.00 89 1005.1
20260509080030 10 236 0.0 3.2 0.00 0.00 0.00 88 1005.1
20260509075508 10 205 0.0 3.2 0.00 0.00 0.00 88 1005.1
20260509075007 10 242 1.6 3.2 0.00 0.00 0.00 88 1005.2
20260509074520 10 162 0.0 3.2 0.00 0.00 0.00 88 1005.2
20260509074008 10 171 0.0 3.2 0.00 0.00 0.00 88 1005.3
20260509073505 10 230 0.0 3.2 0.00 0.00 0.00 87 1005.4
20260509073026 10 231 0.0 3.2 0.00 0.00 0.00 87 1005.4
20260509072512 10 169 0.0 3.2 0.00 0.00 0.00 87 1005.3
20260509072008 10 178 0.0 3.2 0.00 0.00 0.00 87 1005.4
20260509071525 10 192 0.0 3.2 0.00 0.00 0.00 87 1005.6
20260509071012 10 189 0.0 3.2 0.00 0.00 0.00 87 1005.7
20260509070508 10 203 0.0 3.2 0.00 0.00 0.00 86 1005.7
20260509070026 10 178 0.0 3.2 0.00 0.00 0.00 86 1005.9
20260509065510 10 156 0.0 3.2 0.00 0.00 0.00 86 1006.0
20260509065012 11 210 0.0 4.8 0.00 0.00 0.00 85 1006.0
20260509064527 11 235 0.0 4.8 0.00 0.00 0.00 85 1006.0
20260509064011 11 211 0.0 3.2 0.00 0.00 0.00 85 1006.0
20260509063508 11 227 1.6 8.0 0.00 0.00 0.00 85 1006.0
20260509063033 11 177 0.0 8.0 0.00 0.00 0.00 85 1006.0
20260509062513 11 245 0.0 3.2 0.00 0.00 0.00 85 1006.1
20260509062009 11 244 0.0 4.8 0.00 0.00 0.00 85 1006.1
20260509061529 11 150 0.0 4.8 0.00 0.00 0.00 84 1006.3
20260509061011 11 211 0.0 4.8 0.00 0.00 0.00 84 1006.3
20260509060508 11 252 0.0 6.4 0.00 0.00 0.00 84 1006.3
20260509060028 11 144 0.0 6.4 0.00 0.00 0.00 83 1006.2
20260509055509 11 234 0.0 4.8 0.00 0.00 0.00 83 1006.5
20260509055009 11 249 1.6 4.8 0.00 0.00 0.00 83 1006.4
20260509054529 11 235 0.0 4.8 0.00 0.00 0.00 83 1006.5
20260509054014 11 212 0.0 3.2 0.00 0.00 0.00 83 1006.5
20260509053511 12 232 0.0 4.8 0.00 0.00 0.00 83 1006.6
20260509053028 12 240 0.0 4.8 0.00 0.00 0.00 82 1006.6
20260509052509 12 259 0.0 4.8 0.00 0.00 0.00 82 1006.6
20260509052010 12 148 0.0 9.7 0.00 0.00 0.00 82 1006.6
20260509051523 12 181 0.0 9.7 0.00 0.00 0.00 82 1006.5
20260509051007 12 252 0.0 3.2 0.00 0.00 0.00 82 1006.5
20260509050510 12 198 1.6 4.8 0.00 0.00 0.00 81 1006.4
20260509050028 12 211 0.0 4.8 0.00 0.00 0.00 81 1006.5
20260509045508 12 153 0.0 6.4 0.00 0.00 0.00 80 1006.6
20260509045005 12 244 1.6 6.4 0.00 0.00 0.00 80 1006.5
20260509044515 12 250 0.0 6.4 0.00 0.00 0.00 80 1006.5
20260509044004 12 169 1.6 6.4 0.00 0.00 0.00 79 1006.4
20260509043507 12 168 1.6 4.8 0.00 0.00 0.00 79 1006.4
20260509043029 12 180 0.0 4.8 0.00 0.00 0.00 78 1006.5
20260509042508 12 196 0.0 8.0 0.00 0.00 0.00 77 1006.5
20260509042007 13 196 1.6 8.0 0.00 0.00 0.00 76 1006.6
20260509041528 13 229 1.6 4.8 0.00 0.00 0.00 76 1006.6
20260509041008 13 250 0.0 3.2 0.00 0.00 0.00 75 1006.6
20260509040514 13 250 0.0 6.4 0.00 0.00 0.00 74 1006.6
20260509040010 13 241 1.6 11.3 0.00 0.00 0.00 73 1006.7
20260509035504 13 173 1.6 11.3 0.00 0.00 0.00 72 1006.7
20260509035005 13 146 1.6 4.8 0.00 0.00 0.00 72 1006.8
20260509034512 13 204 1.6 4.8 0.00 0.00 0.00 71 1006.8
20260509034004 13 209 1.6 9.7 0.00 0.00 0.00 71 1006.8
20260509033505 13 246 0.0 9.7 0.00 0.00 0.00 70 1006.7
20260509033018 13 174 0.0 9.7 0.00 0.00 0.00 70 1006.7
20260509032509 13 167 1.6 11.3 0.00 0.00 0.00 70 1006.8
20260509032012 14 142 3.2 11.3 0.00 0.00 0.00 69 1006.8
20260509031528 14 190 1.6 8.0 0.00 0.00 0.00 70 1006.8
20260509031010 14 244 0.0 4.8 0.00 0.00 0.00 70 1006.8
20260509030509 14 175 0.0 4.8 0.00 0.00 0.00 70 1006.8
20260509030026 14 205 0.0 6.4 0.00 0.00 0.00 70 1006.7
20260509025507 14 209 0.0 6.4 0.00 0.00 0.00 69 1006.8
20260509025004 14 151 0.0 6.4 0.00 0.00 0.00 69 1006.8
20260509024512 14 238 1.6 6.4 0.00 0.00 0.00 68 1006.8
20260509024004 14 189 0.0 6.4 0.00 0.00 0.00 67 1006.8
20260509023503 15 191 0.0 4.8 0.00 0.00 0.00 65 1006.8
20260509023025 15 167 0.0 8.0 0.00 0.00 0.00 63 1006.7
20260509022504 15 199 0.0 8.0 0.00 0.00 0.00 61 1006.8
20260509022007 15 212 1.6 8.0 0.00 0.00 0.00 59 1006.7
20260509021522 15 185 1.6 4.8 0.00 0.00 0.00 58 1006.7
20260509021006 15 237 0.0 3.2 0.00 0.00 0.00 57 1006.7
20260509020507 15 181 0.0 3.2 0.00 0.00 0.00 57 1006.7
20260509020023 15 181 0.0 3.2 0.00 0.00 0.00 57 1006.5
20260509015514 15 183 0.0 3.2 0.00 0.00 0.00 57 1006.5
20260509015008 15 182 0.0 1.6 0.00 0.00 0.00 57 1006.4
20260509014537 15 182 0.0 1.6 0.00 0.00 0.00 57 1006.4
20260509014003 15 183 0.0 3.2 0.00 0.00 0.00 56 1006.4
20260509013507 15 185 0.0 1.6 0.00 0.00 0.00 56 1006.5
20260509013016 15 184 0.0 1.6 0.00 0.00 0.00 55 1006.4
20260509012507 16 184 0.0 3.2 0.00 0.00 0.00 54 1006.5
20260509012009 16 184 0.0 3.2 0.00 0.00 0.00 53 1006.4
20260509011520 16 194 0.0 3.2 0.00 0.00 0.00 53 1006.4
20260509011008 16 161 0.0 3.2 0.00 0.00 0.00 52 1006.3
20260509010507 16 213 0.0 3.2 0.00 0.00 0.00 52 1006.2
20260509010031 16 230 0.0 3.2 0.00 0.00 0.00 52 1006.3
20260509005510 16 200 0.0 8.0 0.00 0.00 0.00 51 1006.4
20260509005010 17 200 1.6 8.0 0.00 0.00 0.00 50 1006.3
20260509004527 17 244 0.0 3.2 0.00 0.00 0.00 51 1006.4
20260509004010 17 171 0.0 6.4 0.00 0.00 0.00 50 1006.4
20260509003513 17 236 0.0 9.7 0.00 0.00 0.00 50 1006.4
20260509003011 17 222 1.6 9.7 0.00 0.00 0.00 48 1006.4
20260509002506 17 252 0.0 9.7 0.00 0.00 0.00 49 1006.4
20260509002008 17 240 0.0 8.0 0.00 0.00 0.00 48 1006.4
20260509001520 17 247 0.0 6.4 0.00 0.00 0.00 49 1006.4
20260509001004 17 218 0.0 3.2 0.00 0.00 0.00 47 1006.4
20260509000508 17 240 0.0 3.2 0.00 0.00 0.00 49 1006.5
20260509000026 17 159 0.0 3.2 0.00 0.00 0.00 48 1006.5
20260508235510 17 197 0.0 3.2 0.00 0.00 0.00 48 1006.5
20260508235009 17 207 0.0 4.8 0.00 0.00 0.00 49 1006.5
20260508234526 17 199 0.0 4.8 0.00 0.00 0.00 50 1006.6
20260508234016 17 243 1.6 4.8 0.00 0.00 0.00 50 1006.6
20260508233516 17 164 0.0 4.8 0.00 0.00 0.00 47 1006.7
20260508233028 17 215 0.0 11.3 0.00 0.00 0.00 47 1006.6
20260508232509 17 194 0.0 11.3 0.00 0.00 0.00 47 1006.6
20260508232003 18 228 0.0 11.3 0.00 0.00 0.00 47 1006.6
20260508231515 18 218 3.2 8.0 0.00 0.00 0.00 44 1006.6
20260508231009 18 234 1.6 9.7 0.00 0.00 0.00 45 1006.6
20260508230508 18 224 3.2 9.7 0.00 0.00 0.00 47 1006.6
20260508230022 18 140 0.0 8.0 0.00 0.00 0.00 45 1006.6
20260508225508 18 164 1.6 8.0 0.00 0.00 0.00 48 1006.7
20260508225008 18 217 1.6 4.8 0.00 0.00 0.00 48 1006.8
20260508224524 18 282 0.0 8.0 0.00 0.00 0.00 46 1006.8
20260508224010 18 239 1.6 8.0 0.00 0.00 0.00 48 1006.8
20260508223508 18 136 0.0 6.4 0.00 0.00 0.00 47 1006.8
20260508223032 18 179 0.0 3.2 0.00 0.00 0.00 47 1006.9
20260508222508 19 137 3.2 6.4 0.00 0.00 0.00 46 1006.9
20260508222013 18 151 1.6 8.0 0.00 0.00 0.00 49 1006.8
20260508221530 18 224 1.6 8.0 0.00 0.00 0.00 46 1006.8
20260508221005 19 207 0.0 9.7 0.00 0.00 0.00 47 1006.9
20260508220503 19 290 1.6 9.7 0.00 0.00 0.00 46 1006.9
20260508215508 19 217 3.2 9.7 0.00 0.03 0.00 45 1007.0
20260508215009 19 197 0.0 4.8 0.00 0.03 0.00 48 1007.0
20260508214521 18 146 0.0 4.8 0.00 0.03 0.00 52 1007.1
20260508214009 20 155 1.6 8.0 0.00 0.03 0.00 43 1007.1
20260508213510 20 224 1.6 8.0 0.00 0.03 0.00 43 1007.0
20260508213034 20 175 0.0 3.2 0.00 0.03 0.00 47 1007.1
20260508212508 18 249 0.0 3.2 0.00 0.03 0.00 48 1007.2
20260508212012 18 280 1.6 3.2 0.00 0.03 0.00 46 1007.2
20260508211530 18 190 1.6 6.4 0.00 0.03 0.00 46 1007.2
20260508211012 18 233 3.2 6.4 0.00 0.03 0.00 44 1007.3
20260508210506 18 163 1.6 6.4 0.00 0.03 0.00 43 1007.2
20260508210030 19 250 3.2 6.4 0.00 0.03 0.00 43 1007.3
20260508205507 18 227 1.6 6.4 0.00 0.03 0.00 45 1007.3
20260508205008 18 248 0.0 6.4 0.00 0.03 0.00 49 1007.3
20260508204524 18 261 1.6 6.4 0.00 0.03 0.00 45 1007.3
20260508204010 19 137 1.6 4.8 0.00 0.03 0.00 44 1007.3
20260508203509 20 241 0.0 4.8 0.00 0.03 0.00 47 1007.4
20260508203027 20 196 1.6 9.7 0.00 0.03 0.00 44 1007.5
20260508202510 20 149 1.6 9.7 0.00 0.03 0.00 45 1007.5
20260508202010 20 164 1.6 6.4 0.00 0.03 0.00 41 1007.5
20260508201532 21 189 1.6 4.8 0.00 0.03 0.00 44 1007.6
20260508201006 20 236 0.0 4.8 0.00 0.03 0.00 43 1007.6
20260508200511 20 168 0.0 4.8 0.00 0.03 0.00 41 1007.7
20260508200028 20 163 1.6 4.8 0.00 0.03 0.00 41 1007.8
20260508195506 20 318 1.6 6.4 0.00 0.03 0.00 38 1007.9
20260508195006 20 65 0.0 6.4 0.00 0.03 0.00 42 1008.1
20260508194521 20 341 0.0 6.4 0.00 0.03 0.00 44 1008.2
20260508194009 20 184 0.0 4.8 0.00 0.03 0.00 43 1008.1
20260508193508 20 17 3.2 4.8 0.00 0.03 0.00 44 1008.1
20260508193028 20 194 0.0 4.8 0.00 0.03 0.00 46 1008.3
20260508192509 19 42 1.6 4.8 0.00 0.03 0.00 41 1008.3
20260508192013 19 218 1.6 4.8 0.00 0.03 0.00 47 1008.3
20260508191528 19 167 1.6 4.8 0.00 0.03 0.00 46 1008.3
20260508191011 20 352 0.0 4.8 0.00 0.03 0.00 45 1008.3
20260508190506 20 231 0.0 4.8 0.00 0.03 0.00 48 1008.5
20260508190033 20 255 0.0 4.8 0.00 0.03 0.00 52 1008.6
20260508185508 18 319 1.6 8.0 0.00 0.03 0.00 46 1008.7
20260508185010 19 177 3.2 8.0 0.00 0.03 0.00 52 1008.8
20260508184525 18 265 0.0 3.2 0.00 0.03 0.00 55 1008.9
20260508184007 17 224 0.0 4.8 0.00 0.03 0.00 52 1008.9
20260508183508 17 223 0.0 4.8 0.00 0.03 0.00 52 1009.0
20260508183026 17 240 1.6 4.8 0.00 0.03 0.00 52 1009.0
20260508182510 17 245 0.0 4.8 0.00 0.03 0.00 47 1009.1
20260508182010 17 119 1.6 3.2 0.00 0.03 0.00 52 1009.2
20260508181538 17 90 1.6 3.2 0.00 0.03 0.00 51 1009.3
20260508181010 17 196 1.6 3.2 0.00 0.03 0.00 56 1009.3
20260508180511 17 191 0.0 3.2 0.00 0.03 0.00 52 1009.3
20260508180026 17 195 1.6 4.8 0.00 0.03 0.00 45 1009.3
20260508175511 18 206 1.6 4.8 0.00 0.03 0.00 50 1009.4
20260508175013 18 137 1.6 4.8 0.00 0.03 0.00 52 1009.5
20260508174536 18 260 0.0 6.4 0.00 0.03 0.00 51 1009.5
20260508174009 18 163 1.6 6.4 0.00 0.03 0.00 48 1009.6
20260508173505 18 263 1.6 4.8 0.00 0.03 0.00 54 1009.6
20260508173029 17 179 1.6 4.8 0.00 0.03 0.00 58 1009.7
20260508172509 17 157 1.6 9.7 0.00 0.03 0.00 57 1009.8
20260508172008 17 81 4.8 9.7 0.00 0.03 0.00 56 1009.8
20260508171524 18 173 1.6 6.4 0.00 0.03 0.00 58 1009.9
20260508171012 17 93 3.2 6.4 0.00 0.03 0.00 59 1009.9
20260508170509 17 136 1.6 6.4 0.00 0.03 0.00 60 1010.0
20260508170026 16 92 0.0 4.8 0.00 0.03 0.00 61 1010.0
20260508165513 16 155 1.6 4.8 0.00 0.03 0.00 59 1010.1
20260508165012 17 221 0.0 3.2 0.00 0.03 0.00 59 1010.3
20260508164518 17 64 1.6 3.2 0.00 0.03 0.00 61 1010.3
20260508164004 16 216 0.0 3.2 0.00 0.03 0.00 63 1010.4
20260508163508 16 71 0.0 4.8 0.00 0.03 0.00 59 1010.4
20260508163032 16 155 1.6 4.8 0.00 0.03 0.00 59 1010.5
20260508162506 16 155 1.6 4.8 0.00 0.03 0.00 60 1010.7